Wind_Speed
15 15 14 13 12 11 11 12 12 12 13 14 15 16 16 17 17 17 17 17 17 17 18 19 19 18 18 17 17 16 16 16 16 16 16 17 17 17 17 16 16 17 17
15 14 13 12 11 11 11 11 12 12 13 14 15 16 16 17 17 17 17 17 17 18 18 19 20 19 19 18 18 18 17 17 17 17 17 17 17 17 17 17 17 17 17
15 15 14 13 12 12 12 12 12 13 14 15 15 16 17 17 17 17 17 17 18 18 18 18 18 18 18 18 18 18 18 17 17 17 17 18 18 18 17 17 17 17 18
16 16 15 14 13 13 13 13 13 14 14 15 15 16 16 16 16 16 17 17 17 17 17 17 17 17 17 17 17 17 17 17 17 17 17 18 18 18 18 17 18 18 18
18 17 16 16 15 14 14 14 14 14 15 15 16 16 16 16 16 16 16 17 17 18 18 18 17 17 17 17 17 17 17 17 17 17 17 18 18 18 18 18 18 18 19
19 18 18 17 16 15 14 14 14 15 15 16 17 17 17 17 17 17 17 18 18 18 18 18 18 17 17 17 17 17 18 18 18 18 18 18 18 18 19 19 19 19 20
20 19 19 19 18 17 16 15 15 16 17 17 18 19 19 19 18 18 19 19 19 19 19 19 19 18 18 18 18 18 18 18 18 18 18 18 18 19 19 19 20 21 21
21 21 21 20 19 19 18 17 17 18 18 19 20 20 20 20 20 19 20 20 20 19 19 19 19 19 19 19 18 18 18 18 18 18 18 18 19 19 20 20 21 22 23
23 24 23 22 21 21 20 20 20 20 20 20 21 21 21 21 21 21 21 21 21 20 20 19 19 19 19 19 19 19 19 19 19 19 19 19 19 20 20 21 21 22 23
26 25 25 24 23 23 23 23 22 22 22 22 22 22 22 22 22 22 22 22 22 21 20 20 20 20 19 20 20 20 20 19 19 19 20 20 20 21 21 21 21 22 23
27 27 26 25 25 25 24 25 24 24 24 24 23 23 23 23 22 22 22 23 22 22 21 21 21 20 20 20 20 20 20 20 19 20 20 20 21 21 21 22 22 23 23
29 28 27 27 26 26 26 26 26 25 25 25 25 24 24 24 23 23 23 23 23 23 22 22 21 21 21 21 21 21 21 21 20 20 21 21 22 22 22 22 23 23 23
30 29 28 28 28 27 27 27 26 26 26 26 26 26 25 25 24 24 24 24 24 24 24 23 23 22 22 23 23 23 22 22 21 21 22 22 22 22 22 22 22 23 22
31 30 29 29 29 28 28 27 27 27 26 27 27 26 26 26 26 26 26 26 26 25 25 25 24 24 24 24 24 24 24 24 22 22 23 23 23 23 23 23 23 23 22
31 31 30 30 29 29 28 27 27 27 27 27 27 27 27 27 28 28 28 28 28 27 27 27 27 27 27 27 27 26 26 26 25 24 24 24 24 25 25 24 24 23 22
32 31 31 30 30 29 28 28 28 28 27 27 27 28 29 29 29 29 29 29 29 29 29 29 29 29 29 29 29 29 28 28 27 26 26 26 26 26 26 25 25 24 23
32 31 31 31 30 29 29 29 29 29 29 29 29 29 30 31 31 31 31 31 31 32 32 32 32 32 32 31 32 31 31 30 30 28 27 27 28 27 27 27 27 26 25
33 32 32 31 30 30 30 30 30 30 30 31 31 32 32 34 34 34 34 35 35 36 36 35 35 35 35 35 35 35 34 33 32 31 30 29 29 29 29 29 29 28 27
33 33 32 32 31 31 32 31 31 31 32 33 34 35 35 36 37 38 38 38 39 39 39 39 39 39 39 39 39 38 37 36 36 35 33 32 31 31 31 31 31 30 30
34 34 34 33 33 33 33 33 33 33 34 35 37 38 39 39 40 41 41 41 42 42 42 43 43 43 43 43 43 42 41 40 39 38 37 35 34 34 33 33 33 33 32
36 36 35 35 34 34 35 35 35 35 36 38 39 40 41 42 43 44 44 44 45 45 45 46 46 46 46 47 47 46 46 44 42 41 40 39 38 37 36 35 35 35 35
37 37 37 36 36 36 36 37 38 38 39 40 41 42 43 45 46 47 47 48 48 48 48 49 49 50 50 50 51 51 50 48 46 45 44 43 42 41 39 38 38 38 37
37 37 37 37 37 38 38 39 40 40 41 42 43 43 44 46 47 49 50 50 51 52 52 52 52 53 54 54 54 55 54 52 51 49 48 47 46 44 43 42 42 41 41
37 37 38 38 38 39 39 40 41 41 42 43 44 45 45 46 48 49 51 52 54 55 55 55 55 56 57 57 57 57 57 57 55 52 51 50 49 47 46 46 45 45 44
36 36 37 37 38 39 40 41 42 42 42 43 44 45 46 47 48 50 51 53 54 56 58 58 59 59 60 60 60 59 60 60 58 57 55 53 52 51 50 49 48 47 47
36 37 37 38 39 40 40 41 41 42 43 43 44 45 46 48 49 50 51 53 55 57 59 60 62 63 63 63 63 63 62 62 61 60 59 57 55 53 53 51 51 50 49
Wind_Direction
244 249 254 258 263 268 272 274 276 278 281 282 284 287 289 291 294 295 296 296 297 298 299 300 301 300 299 299 298 296 295 295 296 298 299 300 301 302 302 303 305 307 307
244 247 251 255 262 268 272 276 278 280 282 284 285 287 289 291 293 295 297 297 298 299 299 300 301 301 299 298 297 296 296 296 297 297 298 299 300 301 301 301 302 303 305
243 247 251 255 260 267 272 276 279 282 284 286 286 288 290 292 294 295 297 298 299 300 300 300 300 300 300 298 297 296 296 297 297 298 298 298 299 300 299 299 300 301 303
242 246 251 255 258 263 268 274 278 282 284 285 286 288 290 293 295 297 298 299 300 300 300 299 299 299 298 297 296 296 296 296 296 297 297 298 298 298 299 298 299 299 300
243 247 251 254 256 259 263 269 274 278 281 283 285 288 290 293 295 298 299 300 300 299 299 298 297 297 296 295 295 294 294 294 294 295 295 295 296 296 297 297 297 297 297
244 248 251 253 255 257 259 263 267 273 278 282 285 288 291 293 296 297 298 299 300 299 299 299 297 297 296 294 293 293 292 291 292 292 293 294 294 295 295 296 295 295 294
244 248 250 253 255 257 258 260 264 270 277 282 286 289 291 293 295 295 297 298 300 300 300 299 298 297 296 295 294 293 292 292 292 292 293 294 294 294 294 295 294 294 294
242 246 249 253 256 259 261 263 266 271 277 282 286 289 291 293 294 295 296 298 300 300 300 299 298 298 297 295 294 293 294 293 293 293 294 294 295 295 295 295 294 294 294
240 244 248 253 257 261 265 268 271 274 278 282 286 288 291 293 294 295 296 297 298 299 300 299 298 297 296 295 294 294 294 294 294 294 294 294 295 296 296 296 295 294 294
239 243 249 254 259 264 269 273 276 279 281 284 285 287 289 291 293 295 296 296 297 297 298 297 296 295 295 294 293 292 293 294 294 294 294 294 295 296 296 296 296 296 296
239 244 250 255 261 266 272 276 279 282 284 285 286 288 289 290 292 293 294 294 294 295 295 295 295 294 293 293 293 293 293 294 294 294 294 294 294 294 294 294 295 296 297
241 245 251 257 262 267 272 276 279 283 285 287 288 289 290 291 292 291 291 292 292 292 292 292 292 292 292 291 292 292 292 293 294 294 293 294 294 293 293 294 295 296 298
243 247 252 257 262 267 271 274 278 281 284 286 288 290 291 292 292 291 290 289 289 290 289 289 289 289 289 289 290 291 291 291 292 292 292 292 293 292 293 293 295 297 299
244 249 253 257 261 265 269 273 277 280 283 286 288 291 292 292 291 291 290 289 289 288 287 286 286 286 286 287 287 288 289 288 289 288 289 290 291 291 291 292 294 296 297
245 249 253 257 261 265 268 272 275 278 282 285 289 291 292 292 292 292 291 290 289 287 285 284 284 285 286 286 286 286 287 287 287 287 286 287 288 288 289 291 292 293 294
245 248 253 257 261 265 268 271 274 278 280 283 287 289 290 291 291 291 291 290 289 287 285 284 284 285 285 286 286 286 286 285 285 284 284 285 286 286 287 288 289 290 291
245 249 253 257 261 265 268 271 275 278 281 284 286 287 289 290 290 289 289 288 287 285 285 284 284 284 284 284 285 285 286 285 284 283 282 283 284 284 285 286 286 287 288
246 249 253 257 261 265 268 271 275 278 281 284 285 286 286 287 288 288 287 286 285 284 284 284 284 284 283 282 282 283 284 284 283 283 281 280 281 282 283 283 284 284 284
246 251 254 258 261 264 268 271 274 277 280 282 283 284 285 286 287 287 287 286 286 285 285 284 283 282 282 282 281 281 281 282 281 281 280 279 278 278 280 281 281 281 282
248 252 254 257 260 264 267 271 274 277 279 281 283 285 286 287 287 287 287 286 286 285 284 283 282 281 281 281 280 279 279 278 278 279 278 277 276 276 277 278 279 279 280
249 252 255 258 260 263 267 271 273 276 278 281 283 285 286 287 286 285 285 284 284 283 282 281 281 280 280 279 278 278 277 276 277 277 276 275 274 274 275 275 276 277 278
250 253 256 258 261 263 267 270 274 276 279 281 282 283 284 284 284 284 284 284 283 282 281 280 279 278 278 277 277 276 276 276 276 275 274 274 273 273 273 273 274 275 276
252 253 255 258 260 263 267 271 274 277 279 280 281 280 280 281 281 282 283 283 282 282 281 279 278 277 277 276 275 276 276 275 274 273 273 273 272 273 273 273 273 274 274
253 254 256 258 260 264 267 271 274 276 278 279 280 280 280 280 280 280 281 281 281 281 281 279 278 277 276 275 274 274 274 274 273 273 273 273 273 273 273 273 274 274 274
255 257 258 260 262 265 268 271 274 276 278 278 279 279 279 279 279 279 280 280 280 280 280 279 278 276 275 274 273 272 272 272 272 273 273 272 272 272 273 273 274 274 274
258 260 262 263 265 268 270 272 274 276 277 278 279 280 280 280 280 280 281 281 281 280 280 279 278 277 275 274 272 271 270 270 270 271 271 271 271 271 272 273 274 274 275
Height
5881 5882 5883 5884 5886 5887 5888 5888 5889 5890 5890 5891 5891 5891 5892 5892 5892 5892 5892 5893 5893 5892 5892 5892 5891 5891 5890 5890 5890 5889 5889 5888 5887 5887 5886 5886 5885 5885 5884 5883 5882 5882 5881
5879 5880 5881 5883 5884 5885 5886 5887 5887 5888 5889 5889 5889 5890 5890 5890 5890 5890 5890 5891 5891 5890 5890 5890 5889 5889 5888 5888 5887 5887 5886 5886 5885 5885 5884 5884 5883 5882 5882 5881 5880 5880 5879
5877 5878 5880 5881 5882 5883 5884 5885 5886 5886 5887 5887 5887 5888 5888 5888 5888 5888 5888 5888 5888 5888 5888 5888 5887 5886 5886 5885 5885 5885 5884 5884 5883 5882 5882 5881 5880 5880 5879 5879 5878 5877 5876
5875 5877 5878 5879 5881 5882 5883 5883 5884 5885 5885 5885 5885 5886 5886 5886 5886 5886 5886 5886 5886 5886 5886 5885 5885 5884 5884 5883 5883 5882 5882 5881 5881 5880 5879 5879 5878 5877 5877 5876 5875 5875 5874
5873 5875 5876 5877 5879 5880 5881 5882 5882 5883 5883 5883 5884 5884 5884 5884 5884 5884 5884 5884 5883 5883 5883 5883 5882 5882 5881 5881 5880 5880 5879 5878 5878 5877 5877 5876 5875 5875 5874 5873 5873 5872 5871
5871 5872 5873 5875 5876 5877 5879 5880 5880 5881 5881 5881 5882 5882 5882 5882 5882 5881 5881 5881 5881 5881 5880 5880 5879 5879 5879 5878 5877 5877 5876 5875 5875 5874 5874 5873 5872 5871 5871 5870 5870 5869 5868
5868 5869 5871 5872 5873 5875 5876 5877 5878 5878 5879 5879 5879 5879 5879 5879 5879 5879 5879 5878 5878 5878 5877 5877 5876 5876 5875 5875 5874 5873 5873 5872 5871 5871 5870 5869 5869 5868 5867 5867 5866 5866 5865
5865 5866 5868 5869 5870 5872 5873 5874 5875 5876 5876 5876 5877 5877 5877 5876 5876 5876 5876 5875 5875 5875 5874 5874 5873 5873 5872 5871 5871 5870 5869 5868 5868 5867 5866 5866 5865 5864 5864 5863 5862 5862 5861
5862 5862 5864 5866 5867 5868 5870 5871 5872 5873 5873 5874 5874 5874 5874 5874 5873 5873 5873 5872 5872 5872 5871 5871 5870 5869 5869 5868 5867 5866 5865 5865 5864 5863 5862 5862 5861 5860 5860 5859 5858 5857 5857
5858 5859 5860 5862 5864 5865 5866 5867 5868 5869 5870 5870 5871 5871 5871 5871 5870 5870 5870 5869 5869 5868 5868 5867 5866 5866 5865 5864 5863 5862 5862 5861 5860 5860 5859 5858 5857 5856 5856 5855 5854 5853 5852
5854 5856 5857 5859 5860 5861 5862 5863 5864 5865 5866 5866 5867 5867 5867 5867 5867 5867 5866 5866 5865 5865 5864 5863 5863 5862 5861 5860 5859 5858 5858 5857 5857 5856 5855 5854 5853 5852 5852 5851 5850 5849 5848
5850 5852 5854 5855 5857 5858 5859 5859 5860 5861 5862 5862 5863 5863 5863 5864 5863 5863 5863 5862 5861 5861 5860 5860 5859 5858 5857 5856 5855 5854 5853 5853 5853 5852 5850 5850 5849 5848 5847 5846 5845 5844 5843
5845 5848 5850 5851 5852 5854 5855 5855 5856 5857 5858 5858 5858 5858 5859 5859 5859 5859 5858 5858 5858 5857 5856 5855 5855 5854 5853 5852 5851 5850 5849 5849 5849 5848 5846 5845 5845 5843 5842 5842 5841 5839 5838
5841 5843 5845 5846 5848 5849 5850 5851 5852 5853 5853 5854 5854 5854 5854 5854 5854 5854 5854 5853 5853 5853 5852 5851 5850 5849 5848 5848 5847 5846 5845 5844 5844 5843 5842 5841 5840 5839 5838 5837 5836 5835 5833
5836 5838 5840 5841 5843 5844 5846 5847 5848 5848 5849 5849 5849 5849 5849 5849 5849 5849 5849 5849 5848 5848 5847 5846 5845 5844 5844 5843 5842 5841 5840 5839 5839 5839 5837 5836 5835 5834 5833 5832 5831 5830 5829
5831 5833 5835 5837 5838 5840 5841 5842 5842 5843 5844 5844 5845 5844 5844 5844 5844 5843 5843 5843 5842 5842 5841 5840 5840 5839 5838 5837 5836 5836 5835 5834 5833 5833 5832 5831 5830 5829 5828 5827 5826 5825 5823
5826 5828 5830 5832 5833 5835 5836 5837 5837 5838 5838 5839 5839 5839 5839 5838 5838 5837 5837 5837 5836 5835 5834 5834 5833 5833 5832 5831 5830 5829 5829 5828 5827 5827 5827 5825 5824 5823 5822 5821 5820 5819 5818
5820 5823 5825 5827 5828 5829 5830 5831 5832 5832 5832 5833 5833 5833 5833 5832 5831 5831 5831 5830 5829 5828 5828 5827 5826 5826 5825 5824 5823 5823 5822 5821 5820 5820 5820 5820 5818 5817 5816 5815 5814 5813 5812
5815 5817 5819 5821 5822 5823 5824 5825 5826 5826 5826 5826 5826 5826 5825 5825 5824 5824 5823 5823 5821 5821 5820 5819 5819 5817 5817 5816 5815 5815 5814 5814 5813 5812 5812 5812 5812 5810 5809 5808 5808 5807 5806
5810 5812 5813 5815 5816 5817 5818 5819 5819 5820 5820 5819 5819 5818 5818 5817 5817 5816 5815 5814 5813 5813 5812 5810 5809 5809 5808 5807 5806 5806 5806 5805 5804 5804 5804 5803 5803 5803 5802 5801 5800 5799 5799
5803 5805 5807 5809 5810 5811 5811 5812 5812 5813 5813 5812 5812 5811 5810 5809 5808 5806 5806 5805 5804 5803 5802 5801 5800 5799 5798 5797 5796 5795 5795 5795 5795 5795 5794 5794 5793 5793 5793 5793 5792 5791 5790
5796 5798 5800 5801 5803 5804 5804 5804 5805 5805 5805 5805 5804 5803 5802 5799 5798 5797 5796 5795 5793 5792 5791 5790 5789 5788 5787 5786 5785 5783 5784 5785 5785 5784 5784 5783 5783 5783 5783 5783 5783 5782 5781
5789 5791 5792 5794 5795 5796 5797 5797 5797 5797 5797 5796 5795 5794 5793 5791 5789 5787 5785 5783 5782 5781 5780 5779 5777 5776 5775 5774 5773 5772 5772 5773 5772 5773 5773 5772 5772 5773 5772 5772 5772 5772 5772
5781 5783 5784 5786 5787 5788 5789 5789 5789 5789 5788 5787 5786 5784 5783 5781 5779 5777 5775 5772 5770 5768 5767 5766 5764 5763 5761 5761 5760 5760 5759 5758 5759 5760 5761 5761 5761 5761 5761 5761 5761 5761 5760
5773 5774 5776 5778 5779 5780 5780 5780 5780 5780 5779 5778 5776 5775 5773 5771 5769 5767 5764 5762 5759 5756 5754 5752 5750 5749 5747 5746 5746 5746 5744 5743 5744 5746 5747 5748 5748 5748 5749 5749 5749 5748 5748
5764 5766 5768 5769 5770 5771 5771 5771 5771 5770 5769 5768 5766 5764 5763 5760 5758 5756 5753 5750 5747 5744 5741 5738 5736 5733 5732 5731 5730 5730 5730 5730 5730 5731 5731 5733 5734 5735 5735 5736 5736 5735 5735